This is the latest recevied weather packets stored in our database for station/object SP5MRF. If no packets are shown the sender has not sent any weather packets the latest 10 day(s).
| Time | Temp. | Humidity | Pressure | Rain* | Wind** | Luminosity | Snow |
|---|---|---|---|---|---|---|---|
| 1788436848 | 25° C | 50% | 1012.6 hPa | 0 mm | - | - | - |
| 1788436368 | 25.56° C | 50% | 1013.1 hPa | 0 mm | - | - | - |
| 1788435889 | 25.56° C | 50% | 1013 hPa | 0 mm | - | - | - |
| 1788435408 | 25.56° C | 50% | 1013 hPa | 0 mm | - | - | - |
| 1788434928 | 25° C | 50% | 1013.2 hPa | 0 mm | - | - | - |
| 1788434448 | 25° C | 51% | 1013.2 hPa | 0 mm | - | - | - |
| 1788433968 | 25° C | 50% | 1013.2 hPa | 0 mm | - | - | - |
| 1788433488 | 25° C | 50% | 1013.3 hPa | 0 mm | - | - | - |
| 1788432048 | 23.89° C | 52% | 1013.7 hPa | 0 mm | - | - | - |
| 1788431588 | 23.89° C | 53% | 1013.8 hPa | 0 mm | - | - | - |
| 1788431088 | 23.89° C | 52% | 1014 hPa | 0 mm | - | - | - |
| 1788430608 | 24.44° C | 54% | 1013.9 hPa | 0 mm | - | - | - |
| 1788429648 | 23.33° C | 56% | 1014.1 hPa | 0 mm | - | - | - |
| 1788429168 | 22.78° C | 55% | 1014.1 hPa | 0 mm | - | - | - |
| 1788428688 | 22.78° C | 56% | 1014.3 hPa | 0 mm | - | - | - |
| 1788428209 | 22.22° C | 57% | 1014.3 hPa | 0 mm | - | - | - |
| 1788427728 | 22.22° C | 58% | 1014.3 hPa | 0 mm | - | - | - |
| 1788427248 | 22.22° C | 59% | 1014.4 hPa | 0 mm | - | - | - |
| 1788426768 | 22.22° C | 58% | 1014.3 hPa | 0 mm | - | - | - |
| 1788426288 | 21.67° C | 60% | 1014.4 hPa | 0 mm | - | - | - |
| 1788425808 | 21.67° C | 59% | 1014.6 hPa | 0 mm | - | - | - |
| 1788425328 | 21.67° C | 61% | 1014.4 hPa | 0 mm | - | - | - |
| 1788424850 | 21.67° C | 63% | 1014.7 hPa | 0 mm | - | - | - |
| 1788424368 | 21.67° C | 64% | 1014.7 hPa | 0 mm | - | - | - |
| 1788423888 | 21.67° C | 65% | 1014.6 hPa | 0 mm | - | - | - |
* Rain latest hour (hover to see other rain measurements)
** Current wind speed in m/s (hover to see current wind gust speed)